Location: Deneb Observatory
(47.2267°N, 100.4953°W)
Time: 02:22:21
(UTC-06:00)

Amateur Radio Satellites - All Passes

Search period start: 23 January 2017 01:52
Search period end: 24 January 2017 01:52
Location: Deneb Observatory, 47.2267°N, 100.4953°W

Satellite Date Start Highest point End Downlink Frequencies (MHz)
Time Altitude Azimuth
Cosmos 2504 23 Jan 01:56:56 02:04:16 60° 76° (ENE) 02:11:19 435.465 / 435.565
Oscar 19 23 Jan 02:05:47 02:10:55 59° 101° (E) 02:15:59 437.125/150
BEESAT 23 Jan 02:12:58 02:17:39 61° 71° (ENE) 02:22:23 436.000
SWISSCUBE 23 Jan 02:14:52 02:19:35 71° 73° (ENE) 02:24:22 437.505
AUBIESAT-1 23 Jan 02:22:11 02:24:01 13° 55° (NE) 02:25:48 437.475
RS-15 23 Jan 02:25:14 02:36:49 47° 329° (NNW) 02:48:43 29.354- 29.394
CUSAT 1 23 Jan 02:27:41 02:32:22 26° 82° (E) 02:37:55 437.405
YUBILEINY 23 Jan 02:29:32 02:38:05 57° 270° (W) 02:46:33 435.215
BEESAT 2 23 Jan 02:31:36 02:34:22 18° 247° (WSW) 02:37:07 435.950
Gurwin Techsat 1B 23 Jan 02:42:43 02:48:03 68° 103° (ESE) 02:53:20 435.225
PHONESAT 2.4 23 Jan 02:43:36 02:44:54 14° 174° (S) 02:46:11 2401.200-2431.200
ITAMSAT 1 23 Jan 02:55:43 02:59:32 20° 91° (E) 03:03:19 435.822/435.867
ISS 23 Jan 02:58:54 03:02:09 73° 21° (NNE) 03:05:24 145.825
AIST 2 23 Jan 03:16:13 03:20:16 41° 45° (NE) 03:24:18 435.215
PCSat 23 Jan 03:16:30 03:20:15 18° 328° (NNW) 03:24:00 145.827
ITUPSAT 1 23 Jan 03:18:30 03:22:50 34° 263° (W) 03:27:14 437.325
M-CUBED/EXP-1 PRIME 23 Jan 03:19:42 03:23:52 56° 67° (ENE) 03:27:44 437.505
MOZHAYETS 4 23 Jan 03:20:11 03:24:45 84° 77° (ENE) 03:29:24
Cosmos 2491 23 Jan 03:22:49 03:31:23 60° 285° (WNW) 03:40:02 435.465 / 435.565
KKS-1 23 Jan 03:38:56 03:43:10 46° 70° (ENE) 03:47:26 437.445
AO-7 23 Jan 03:44:10 03:51:54 39° 98° (E) 03:59:33 29.400- 29.500
Oscar 19 23 Jan 03:45:53 03:49:50 23° 300° (WNW) 03:53:46 437.125/150
DANDE 23 Jan 03:47:09 03:50:56 29° 85° (E) 03:55:47 436.750
Cosmos 2504 23 Jan 03:51:05 03:57:06 28° 278° (W) 04:02:57 435.465 / 435.565
BEESAT 23 Jan 03:52:42 03:55:51 17° 269° (W) 03:59:01 436.000
AUBIESAT-1 23 Jan 03:53:49 03:58:00 79° 252° (WSW) 04:01:53 437.475
SWISSCUBE 23 Jan 03:55:10 03:57:54 15° 271° (W) 04:00:39 437.505
CUSAT 1 23 Jan 04:07:58 04:13:34 60° 287° (WNW) 04:20:43 437.405
CUBESAT XI-V 23 Jan 04:13:51 04:18:24 50° 70° (ENE) 04:22:58 437.345
PHONESAT 2.4 23 Jan 04:17:07 04:18:13 13° 190° (S) 04:19:19 2401.200-2431.200
Gurwin Techsat 1B 23 Jan 04:23:38 04:27:29 21° 301° (WNW) 04:31:20 435.225
STARS 23 Jan 04:23:44 04:28:03 62° 72° (ENE) 04:32:23 437.465
YUBILEINY 23 Jan 04:30:29 04:32:45 11° 292° (WNW) 04:35:01 435.215
ITAMSAT 1 23 Jan 04:34:15 04:39:24 61° 289° (WNW) 04:44:32 435.822/435.867
ISS 23 Jan 04:35:47 04:38:22 22° 221° (SW) 04:40:58 145.825
RS-15 23 Jan 04:42:17 04:53:13 34° 2° (N) 05:04:08 29.354- 29.394
AIST 2 23 Jan 04:54:59 04:58:36 27° 244° (WSW) 05:02:10 435.215
M-CUBED/EXP-1 PRIME 23 Jan 04:55:57 04:58:34 16° 262° (W) 05:01:05 437.505
MOZHAYETS 4 23 Jan 05:00:54 05:02:34 12° 273° (W) 05:04:14
BRITE-PL 23 Jan 05:06:15 05:10:34 31° 94° (E) 05:14:33 437.365/2234.400
KKS-1 23 Jan 05:16:39 05:19:58 20° 267° (W) 05:23:18 437.445
GONETS M04 23 Jan 05:20:53 05:27:18 21° 56° (ENE) 05:33:42
Cosmos 2491 23 Jan 05:25:57 05:30:30 15° 310° (NW) 05:35:05 435.465 / 435.565
DANDE 23 Jan 05:29:22 05:33:29 35° 294° (WNW) 05:38:52 436.750
STRAND 1 23 Jan 05:35:54 05:38:58 16° 57° (ENE) 05:42:04 437.568
AO-7 23 Jan 05:36:50 05:44:56 56° 298° (WNW) 05:53:00 29.400- 29.500
CUBESAT XI-V 23 Jan 05:52:30 05:56:03 21° 269° (W) 05:59:37 437.345
CUSAT 1 23 Jan 05:54:12 05:57:26 14° 312° (NW) 06:00:59 437.405
Cosmos 2499 23 Jan 06:01:19 06:07:47 35° 68° (ENE) 06:14:09 435.465 / 435.565
STARS 23 Jan 06:02:17 06:04:49 15° 270° (W) 06:07:21 437.465
CUTE-I 23 Jan 06:06:46 06:10:54 22° 92° (E) 06:15:01 437.470
HORYU 2 23 Jan 06:12:22 06:16:47 59° 102° (ESE) 06:21:12 437.375
ITAMSAT 1 23 Jan 06:16:35 06:17:51 11° 309° (NW) 06:19:08 435.822/435.867
O/OREOS (USA 219) 23 Jan 06:24:01 06:28:25 59° 111° (ESE) 06:32:49 437.305
GOMX 1 23 Jan 06:32:32 06:36:59 86° 106° (ESE) 06:41:11 467.674
BRITE-PL 23 Jan 06:44:42 06:49:03 33° 294° (WNW) 06:53:06 437.365/2234.400
NOAA 15 23 Jan 06:48:16 06:53:27 50° 100° (E) 06:58:35 137.62
PCSat 23 Jan 06:49:50 06:52:08 13° 21° (NNE) 06:54:26 145.827
Cubesat XI-IV 23 Jan 06:50:18 06:55:31 50° 100° (E) 07:00:42 437.490
DOVE 4 23 Jan 06:55:52 07:00:00 59° 100° (E) 07:04:05 437.250
LilacSat-2 23 Jan 06:57:14 07:01:07 74° 102° (ESE) 07:04:59 437.200
RS-15 23 Jan 06:57:15 07:09:21 52° 35° (NE) 07:21:06 29.354- 29.394
STRAND 1 23 Jan 07:12:24 07:17:29 84° 255° (WSW) 07:22:39 437.568
GONETS M04 23 Jan 07:16:45 07:25:40 82° 81° (E) 07:34:33
NOAA 18 23 Jan 07:19:38 07:24:56 49° 100° (E) 07:30:13 137.9125
SO-50 23 Jan 07:22:09 07:26:18 31° 117° (ESE) 07:30:25 436.795
CANX-2 23 Jan 07:22:48 07:25:54 19° 91° (E) 07:28:59 2200.000
SEEDS 23 Jan 07:28:15 07:30:08 13° 88° (E) 07:32:00 437.485
AO-7 23 Jan 07:31:08 07:35:59 17° 321° (NW) 07:40:49 29.400- 29.500
CUTE-I 23 Jan 07:46:05 07:51:19 57° 290° (WNW) 07:56:32 437.470
HO-68 23 Jan 07:46:17 07:52:50 36° 96° (E) 07:59:17 435.675
HORYU 2 23 Jan 07:49:54 07:52:55 18° 299° (WNW) 07:55:56 437.375
Cosmos 2499 23 Jan 07:54:22 08:01:08 48° 270° (W) 08:07:48 435.465 / 435.565
CINEMA 3 23 Jan 08:01:37 08:05:50 69° 102° (ESE) 08:10:08 145.822/145.860
O/OREOS (USA 219) 23 Jan 08:04:54 08:08:12 20° 311° (NW) 08:11:32 437.305
PRISM 23 Jan 08:05:15 08:08:22 21° 63° (ENE) 08:11:30 437.425
GOMX 1 23 Jan 08:12:40 08:14:21 12° 304° (WNW) 08:16:00 467.674
ANTELSAT 23 Jan 08:21:39 08:22:28 10° 56° (ENE) 08:23:16 437.575/2403.000
CUTE 1.7 + AOD 2 23 Jan 08:27:45 08:32:05 75° 104° (ESE) 08:36:22 437.475
NOAA 15 23 Jan 08:28:34 08:32:57 27° 299° (WNW) 08:37:19 137.62
Cubesat XI-IV 23 Jan 08:30:55 08:35:19 27° 298° (WNW) 08:39:44 437.490
PCSat 23 Jan 08:32:08 08:37:11 37° 45° (NE) 08:42:11 145.827
LilacSat-2 23 Jan 08:33:25 08:34:51 12° 300° (WNW) 08:36:18 437.200
DOVE 4 23 Jan 08:34:49 08:37:16 15° 299° (WNW) 08:39:42 437.250
CUBEBUG 2 23 Jan 08:35:07 08:39:14 39° 98° (E) 08:43:27 437.445
JAS-2 23 Jan 08:41:06 08:42:47 11° 45° (NE) 08:44:30 435.910
FUNcube-1 23 Jan 08:44:00 08:47:10 19° 92° (E) 08:50:22 145.935
STRAND 1 23 Jan 08:55:46 08:57:28 12° 274° (W) 08:59:11 437.568
UWE-3 23 Jan 08:56:46 09:00:58 43° 98° (E) 09:05:15 435.000/436.395/437.385
CANX-2 23 Jan 08:57:51 09:02:00 46° 289° (WNW) 09:06:07 2200.000
NOAA 18 23 Jan 09:00:47 09:05:22 28° 299° (WNW) 09:09:57 137.9125
COMPASS 1 23 Jan 09:01:15 09:05:29 78° 103° (ESE) 09:09:40 437.405
SEEDS 23 Jan 09:02:03 09:06:19 70° 286° (WNW) 09:10:31 437.485
SO-50 23 Jan 09:02:12 09:06:40 42° 316° (NW) 09:11:06 436.795
ZACube-1 23 Jan 09:08:21 09:12:24 35° 97° (E) 09:16:31 437.345
AAUSAT CUBESAT 2 23 Jan 09:09:14 09:13:26 74° 103° (ESE) 09:17:35 437.432
RS-15 23 Jan 09:10:21 09:22:31 67° 242° (WSW) 09:34:14 29.354- 29.394
GONETS M04 23 Jan 09:14:50 09:21:26 24° 282° (WNW) 09:28:03
UNISAT 6 23 Jan 09:26:02 09:30:03 42° 70° (ENE) 09:34:07 437.425
CUTE-I 23 Jan 09:29:21 09:30:16 10° 310° (NW) 09:31:11 437.470
HO-68 23 Jan 09:33:51 09:40:46 52° 296° (WNW) 09:47:38 435.675
TIGRISAT 23 Jan 09:38:14 09:42:21 53° 72° (ENE) 09:46:31 435.000
Oscar 11 23 Jan 09:38:38 09:42:59 59° 101° (E) 09:47:17 145.826/435.025
PRISM 23 Jan 09:39:26 09:43:24 43° 261° (W) 09:47:24 437.425
CINEMA 3 23 Jan 09:40:17 09:42:29 14° 299° (WNW) 09:44:43 145.822/145.860
ANTELSAT 23 Jan 09:54:11 09:58:26 82° 74° (ENE) 10:02:44 437.575/2403.000
DELFI C3 23 Jan 09:58:07 10:01:45 32° 96° (E) 10:05:20 145.870
CUTE 1.7 + AOD 2 23 Jan 10:05:10 10:07:20 14° 301° (WNW) 10:09:30 437.475
CUBEBUG 2 23 Jan 10:12:11 10:15:40 24° 295° (WNW) 10:19:14 437.445
QB50P1 23 Jan 10:15:10 10:17:49 16° 61° (ENE) 10:20:27 145.935-145.965
PCSat 23 Jan 10:15:33 10:20:40 44° 245° (WSW) 10:25:46 145.827
FUNcube-1 23 Jan 10:19:24 10:23:39 49° 289° (WNW) 10:27:58 145.935
POLYITAN 1 23 Jan 10:20:06 10:22:59 18° 62° (ENE) 10:25:53 437.675
JAS-2 23 Jan 10:21:01 10:26:21 55° 68° (ENE) 10:32:22 435.910
QB50P2 23 Jan 10:21:16 10:24:20 20° 63° (ENE) 10:27:24 145.880/145.840
HUMSAT D 23 Jan 10:26:28 10:30:30 38° 97° (E) 10:34:32 437.325/437.525
UWE-3 23 Jan 10:33:46 10:37:12 23° 295° (WNW) 10:40:41 435.000/436.395/437.385
COMPASS 1 23 Jan 10:38:31 10:40:26 13° 301° (WNW) 10:42:20 437.405
POPSAT HIP 1 23 Jan 10:41:18 10:44:52 28° 66° (ENE) 10:48:27 437.405
ZACube-1 23 Jan 10:44:52 10:48:34 27° 294° (WNW) 10:52:20 437.345
SO-50 23 Jan 10:46:04 10:48:19 13° 338° (NNW) 10:50:34 436.795
AAUSAT CUBESAT 2 23 Jan 10:46:18 10:48:20 13° 300° (WNW) 10:50:23 437.432
DUCHIFAT 1 23 Jan 10:47:55 10:51:29 28° 67° (ENE) 10:55:05 145.980
NANOSAT C BR1 23 Jan 10:54:56 10:58:45 36° 69° (ENE) 11:02:35 145.865
BY70-1 23 Jan 10:56:06 10:58:01 15° 91° (E) 10:59:53 436.1900
UNISAT 6 23 Jan 11:03:49 11:06:59 20° 268° (W) 11:10:11 437.425
BUGSAT 1 23 Jan 11:09:55 11:12:45 19° 63° (ENE) 11:15:34 437.445
Oscar 11 23 Jan 11:15:50 11:18:41 17° 299° (WNW) 11:21:30 145.826/435.025
TIGRISAT 23 Jan 11:16:42 11:19:24 16° 270° (W) 11:22:06 435.000
HO-68 23 Jan 11:23:46 11:26:55 13° 317° (NW) 11:30:04 435.675
RS-15 23 Jan 11:25:29 11:32:24 17° 266° (W) 11:39:14 29.354- 29.394
Cosmos 2491 23 Jan 11:33:04 11:39:27 21° 57° (ENE) 11:45:47 435.465 / 435.565
DELFI C3 23 Jan 11:33:10 11:36:25 24° 294° (WNW) 11:39:37 145.870
ANTELSAT 23 Jan 11:34:54 11:35:45 11° 273° (W) 11:36:37 437.575/2403.000
AISAT 23 Jan 11:37:47 11:39:29 12° 88° (E) 11:41:10 437.250
Oscar 19 23 Jan 11:48:30 11:52:05 19° 58° (ENE) 11:55:40 437.125/150
QB50P1 23 Jan 11:49:03 11:53:09 57° 259° (W) 11:57:18 145.935-145.965
POLYITAN 1 23 Jan 11:54:22 11:58:26 50° 260° (W) 12:02:32 437.675
QB50P2 23 Jan 11:55:48 11:59:50 45° 261° (W) 12:03:54 145.880/145.840
HUMSAT D 23 Jan 12:02:28 12:05:55 24° 295° (WNW) 12:09:21 437.325/437.525
JAS-2 23 Jan 12:07:33 12:11:58 24° 271° (W) 12:16:46 435.910
VELOX 1 23 Jan 12:09:28 12:13:03 24° 94° (E) 12:16:36 145.980
ESTCUBE 1 23 Jan 12:12:06 12:16:39 67° 102° (ESE) 12:21:08 437.505/2401.250
SPROUT 23 Jan 12:13:24 12:16:34 20° 92° (E) 12:19:44 437.525
POPSAT HIP 1 23 Jan 12:16:52 12:20:35 30° 264° (W) 12:24:19 437.405
DUCHIFAT 1 23 Jan 12:23:27 12:27:06 30° 264° (W) 12:30:48 145.980
UKube-1 23 Jan 12:24:18 12:26:00 12° 89° (E) 12:27:42 .
BY70-1 23 Jan 12:25:28 12:28:25 32° 291° (WNW) 12:31:11 436.1900
50 SAT 23 Jan 12:26:02 12:28:58 24° 95° (E) 12:31:52 437.505
Gurwin Techsat 1B 23 Jan 12:28:40 12:32:48 24° 60° (ENE) 12:36:57 435.225
DX 1 23 Jan 12:30:45 12:33:53 19° 92° (E) 12:37:01 434.975-435.025
NANOSAT C BR1 23 Jan 12:31:12 12:34:34 23° 266° (W) 12:37:56 145.865
DANDE 23 Jan 12:38:44 12:41:25 12° 49° (NE) 12:44:11 436.750
BUGSAT 1 23 Jan 12:43:56 12:47:49 45° 261° (W) 12:51:42 437.445
CUBEBUG 1 23 Jan 12:46:43 12:51:04 90° 324° (NW) 12:55:23 437.445
CUSAT 1 23 Jan 12:55:53 13:02:51 32° 62° (ENE) 13:09:24 437.405
AO-7 23 Jan 12:57:24 13:03:04 21° 43° (NE) 13:08:44 29.400- 29.500
AO-85 23 Jan 13:05:45 13:09:30 24° 116° (ESE) 13:13:02 145.980
AISAT 23 Jan 13:12:06 13:16:30 78° 286° (WNW) 13:20:52 437.250
Oscar 19 23 Jan 13:25:39 13:30:50 73° 256° (WSW) 13:36:04 437.125/150
Cosmos 2491 23 Jan 13:28:57 13:37:49 83° 81° (E) 13:46:39 435.465 / 435.565
TISAT 1 23 Jan 13:29:26 13:32:26 19° 92° (E) 13:35:26 437.305
YUBILEINY 23 Jan 13:38:03 13:45:55 38° 84° (E) 13:53:48 435.215
VELOX 1 23 Jan 13:45:32 13:49:37 38° 292° (WNW) 13:53:41 145.980
SPROUT 23 Jan 13:48:40 13:52:42 43° 290° (WNW) 13:56:44 437.525
ESTCUBE 1 23 Jan 13:50:06 13:52:57 17° 300° (WNW) 13:55:47 437.505/2401.250
UKube-1 23 Jan 13:58:15 14:02:34 75° 287° (WNW) 14:06:51 .
50 SAT 23 Jan 13:59:08 14:02:08 25° 293° (WNW) 14:05:06 437.505
DX 1 23 Jan 14:06:09 14:10:20 47° 290° (WNW) 14:14:29 434.975-435.025
Gurwin Techsat 1B 23 Jan 14:07:09 14:12:22 58° 259° (WSW) 14:17:38 435.225
SO-50 23 Jan 14:10:22 14:13:19 17° 28° (NNE) 14:16:14 436.795
AIST 1 23 Jan 14:11:24 14:15:45 77° 96° (E) 14:20:06
BEESAT 23 Jan 14:11:50 14:13:46 12° 88° (E) 14:15:41 436.000
SWISSCUBE 23 Jan 14:13:18 14:15:53 14° 89° (E) 14:18:28 437.505
ITAMSAT 1 23 Jan 14:16:22 14:21:12 42° 67° (ENE) 14:26:04 435.822/435.867
DANDE 23 Jan 14:18:39 14:26:08 45° 70° (ENE) 14:34:03 436.750
CUBEBUG 1 23 Jan 14:25:06 14:26:40 12° 303° (WNW) 14:28:14 437.445
CUSAT 1 23 Jan 14:37:30 14:45:28 70° 264° (W) 14:52:42 437.405
Cosmos 2504 23 Jan 14:37:54 14:45:57 48° 89° (E) 14:53:33 435.465 / 435.565
AO-85 23 Jan 14:45:15 14:49:43 49° 313° (NW) 14:53:52 145.980
BRITE-PL 23 Jan 14:45:48 14:46:40 10° 52° (NE) 14:47:31 437.365/2234.400
AO-7 23 Jan 14:46:09 14:54:26 69° 65° (ENE) 15:02:45 29.400- 29.500
AISAT 23 Jan 14:51:17 14:52:11 11° 304° (NW) 14:53:05 437.250
O/OREOS (USA 219) 23 Jan 14:51:55 14:55:44 26° 53° (NE) 14:59:33 437.305
TISAT 1 23 Jan 15:04:18 15:08:17 44° 290° (WNW) 15:12:16 437.305
MOZHAYETS 4 23 Jan 15:13:06 15:16:02 16° 89° (E) 15:18:57
ITUPSAT 1 23 Jan 15:15:10 15:19:49 47° 99° (E) 15:24:27 437.325
Cosmos 2491 23 Jan 15:27:05 15:33:36 24° 282° (WNW) 15:40:10 435.465 / 435.565
BEESAT 3 23 Jan 15:32:48 15:35:55 23° 115° (ESE) 15:39:03 437.485
YUBILEINY 23 Jan 15:33:46 15:42:24 56° 286° (WNW) 15:51:05 435.215
UKube-1 23 Jan 15:37:34 15:37:49 10° 305° (NW) 15:38:03 .
HORYU 2 23 Jan 15:40:27 15:41:41 11° 56° (NE) 15:42:55 437.375
BEESAT 23 Jan 15:47:22 15:52:11 87° 290° (WNW) 15:57:00 436.000
SWISSCUBE 23 Jan 15:49:24 15:54:14 76° 287° (WNW) 15:59:01 437.505
SO-50 23 Jan 15:50:06 15:54:38 68° 50° (NE) 15:59:05 436.795
AIST 1 23 Jan 15:52:03 15:53:55 12° 296° (WNW) 15:55:47
ITAMSAT 1 23 Jan 15:56:20 16:00:48 29° 265° (W) 16:05:18 435.822/435.867
DANDE 23 Jan 16:01:24 16:08:58 51° 268° (W) 16:16:55 436.750
GOMX 1 23 Jan 16:06:31 16:10:13 20° 62° (ENE) 16:13:48 467.674
BRITE-PL 23 Jan 16:18:31 16:24:03 54° 71° (ENE) 16:29:24 437.365/2234.400
CUSAT 1 23 Jan 16:21:35 16:25:55 16° 284° (WNW) 16:30:05 437.405
BEESAT 2 23 Jan 16:24:44 16:28:19 34° 118° (ESE) 16:31:58 435.950
AO-85 23 Jan 16:29:07 16:31:03 13° 333° (NNW) 16:32:57 145.980
DOVE 4 23 Jan 16:29:25 16:31:24 13° 59° (ENE) 16:33:21 437.250
M-CUBED/EXP-1 PRIME 23 Jan 16:30:39 16:33:02 18° 99° (E) 16:35:23 437.505
O/OREOS (USA 219) 23 Jan 16:31:03 16:35:17 41° 252° (WSW) 16:39:31 437.305
Cosmos 2504 23 Jan 16:31:28 16:39:27 43° 289° (WNW) 16:46:58 435.465 / 435.565
NOAA 15 23 Jan 16:33:58 16:37:33 19° 57° (ENE) 16:41:07 137.62
Cubesat XI-IV 23 Jan 16:37:45 16:41:20 19° 57° (ENE) 16:44:57 437.490
AO-7 23 Jan 16:40:38 16:47:48 31° 266° (W) 16:55:02 29.400- 29.500
MOZHAYETS 4 23 Jan 16:49:01 16:53:37 63° 287° (WNW) 16:58:13
ITUPSAT 1 23 Jan 16:53:32 16:57:24 25° 298° (WNW) 17:01:15 437.325
KKS-1 23 Jan 17:02:50 17:07:14 60° 101° (ESE) 17:11:36 437.445
AUBIESAT-1 23 Jan 17:03:39 17:06:47 36° 104° (ESE) 17:09:51 437.475
BEESAT 3 23 Jan 17:09:34 17:13:18 42° 314° (NW) 17:17:06 437.485
NOAA 18 23 Jan 17:10:28 17:14:33 22° 58° (ENE) 17:18:37 137.9125
HORYU 2 23 Jan 17:13:04 17:17:28 80° 75° (ENE) 17:21:55 437.375
BEESAT 23 Jan 17:26:57 17:29:15 13° 304° (NW) 17:31:32 436.000
SWISSCUBE 23 Jan 17:29:27 17:31:11 12° 306° (NW) 17:32:56 437.505
CUTE-I 23 Jan 17:31:22 17:36:27 48° 68° (ENE) 17:41:32 437.470
SO-50 23 Jan 17:31:39 17:34:35 17° 249° (WSW) 17:37:31 436.795
CINEMA 3 23 Jan 17:32:42 17:33:57 11° 58° (ENE) 17:35:11 145.822/145.860
YUBILEINY 23 Jan 17:37:28 17:41:40 14° 312° (NW) 17:45:53 435.215
LilacSat-2 23 Jan 17:41:51 17:45:32 54° 73° (ENE) 17:49:17 437.200
GOMX 1 23 Jan 17:42:35 17:47:53 67° 259° (WSW) 17:52:54 467.674
CUBESAT XI-V 23 Jan 17:44:15 17:48:59 81° 104° (ESE) 17:53:39 437.345
STARS 23 Jan 17:45:59 17:50:23 78° 105° (ESE) 17:54:45 437.465
DANDE 23 Jan 17:48:16 17:50:07 11° 286° (WNW) 17:51:59 436.750
CUTE 1.7 + AOD 2 23 Jan 17:52:01 17:52:09 10° 56° (ENE) 17:52:16 437.475
BRITE-PL 23 Jan 17:58:03 18:02:44 26° 268° (W) 18:07:20 437.365/2234.400
BEESAT 2 23 Jan 18:02:34 18:06:08 31° 318° (NW) 18:09:45 435.950
DOVE 4 23 Jan 18:03:36 18:08:29 86° 73° (ENE) 18:13:05 437.250
M-CUBED/EXP-1 PRIME 23 Jan 18:04:42 18:07:38 29° 298° (WNW) 18:10:30 437.505
NOAA 15 23 Jan 18:11:24 18:16:42 78° 256° (WSW) 18:22:04 137.62
Cubesat XI-IV 23 Jan 18:15:30 18:20:49 76° 256° (WSW) 18:26:10 437.490
HO-68 23 Jan 18:18:12 18:24:42 38° 60° (ENE) 18:31:13 435.675
CANX-2 23 Jan 18:18:35 18:21:47 21° 64° (ENE) 18:24:59 2200.000
SEEDS 23 Jan 18:23:00 18:25:17 14° 60° (ENE) 18:27:35 437.485
GONETS M04 23 Jan 18:28:43 18:34:23 20° 75° (ENE) 18:40:04
AUBIESAT-1 23 Jan 18:38:50 18:40:59 16° 302° (WNW) 18:43:06 437.475
KKS-1 23 Jan 18:40:26 18:43:21 18° 300° (WNW) 18:46:17 437.445
Cosmos 2499 23 Jan 18:42:13 18:48:47 28° 83° (E) 18:55:00 435.465 / 435.565
NOAA 18 23 Jan 18:49:15 18:54:43 68° 257° (WSW) 19:00:11 137.9125
BEESAT 3 23 Jan 18:50:58 18:51:58 11° 336° (NNW) 18:52:59 437.485
HORYU 2 23 Jan 18:53:00 18:54:36 12° 272° (W) 18:56:12 437.375
AIST 2 23 Jan 18:54:52 18:58:24 28° 116° (ESE) 19:02:00 435.215
CINEMA 3 23 Jan 19:06:07 19:10:28 90° 69° (ENE) 19:14:42 145.822/145.860
CUTE-I 23 Jan 19:12:20 19:16:44 26° 267° (W) 19:21:09 437.470
LilacSat-2 23 Jan 19:18:24 19:20:11 13° 271° (W) 19:21:59 437.200
STRAND 1 23 Jan 19:20:06 19:24:25 26° 94° (E) 19:28:43 437.568
CUTE 1.7 + AOD 2 23 Jan 19:22:57 19:27:12 77° 75° (ENE) 19:31:30 437.475
CUBESAT XI-V 23 Jan 19:23:09 19:25:43 15° 302° (WNW) 19:28:17 437.345
STARS 23 Jan 19:23:55 19:26:08 14° 302° (WNW) 19:28:22 437.465
CUBEBUG 2 23 Jan 19:36:16 19:40:14 45° 71° (ENE) 19:44:12 437.445
FUNcube-1 23 Jan 19:42:45 19:45:51 21° 64° (ENE) 19:48:59 145.935
DOVE 4 23 Jan 19:44:50 19:46:43 12° 272° (W) 19:48:33 437.250
CANX-2 23 Jan 19:53:16 19:57:20 44° 262° (W) 20:01:29 2200.000
COMPASS 1 23 Jan 19:54:24 19:58:36 76° 75° (ENE) 20:02:50 437.405
AO-85 23 Jan 19:54:33 19:55:53 11° 24° (NNE) 19:57:13 145.980
NOAA 15 23 Jan 19:55:51 19:57:22 11° 274° (W) 19:58:53 137.62
SEEDS 23 Jan 19:56:14 20:00:26 70° 258° (WSW) 20:04:43 437.485
UWE-3 23 Jan 19:56:46 20:00:44 48° 71° (ENE) 20:04:45 435.000/436.395/437.385
Cubesat XI-IV 23 Jan 20:00:31 20:01:48 11° 275° (W) 20:03:05 437.490
AAUSAT CUBESAT 2 23 Jan 20:01:52 20:06:01 71° 75° (ENE) 20:10:13 437.432
HO-68 23 Jan 20:05:17 20:12:15 51° 260° (W) 20:19:16 435.675
ZACube-1 23 Jan 20:07:09 20:10:59 38° 70° (ENE) 20:14:54 437.345
GONETS M04 23 Jan 20:21:06 20:29:49 84° 97° (E) 20:38:39
AIST 2 23 Jan 20:32:52 20:36:45 38° 315° (NW) 20:40:44 435.215
Cosmos 2499 23 Jan 20:33:07 20:41:21 68° 282° (WNW) 20:49:00 435.465 / 435.565
Oscar 11 23 Jan 20:36:01 20:40:18 66° 73° (ENE) 20:44:38 145.826/435.025
DELFI C3 23 Jan 20:46:31 20:50:01 29° 68° (ENE) 20:53:32 145.870
STRAND 1 23 Jan 20:58:53 21:03:48 46° 292° (WNW) 21:08:41 437.568
CUTE 1.7 + AOD 2 23 Jan 21:02:07 21:03:35 12° 273° (W) 21:05:04 437.475
CUBEBUG 2 23 Jan 21:14:16 21:17:06 18° 269° (W) 21:19:58 437.445
ISS 23 Jan 21:17:31 21:20:02 21° 139° (SE) 21:22:33 145.825
FUNcube-1 23 Jan 21:17:55 21:21:50 41° 262° (W) 21:25:50 145.935
PRISM 23 Jan 21:18:09 21:21:12 20° 93° (E) 21:24:14 437.425
HUMSAT D 23 Jan 21:20:28 21:24:18 38° 69° (ENE) 21:28:12 437.325/437.525
RS-15 23 Jan 21:31:20 21:37:31 16° 93° (E) 21:43:49 29.354- 29.394
COMPASS 1 23 Jan 21:33:17 21:34:41 11° 273° (W) 21:36:05 437.405
AO-85 23 Jan 21:33:28 21:37:18 47° 47° (NE) 21:41:04 145.980
UWE-3 23 Jan 21:34:45 21:37:30 17° 269° (W) 21:40:16 435.000/436.395/437.385
AAUSAT CUBESAT 2 23 Jan 21:40:16 21:41:59 12° 272° (W) 21:43:42 437.432
ESTCUBE 1 23 Jan 21:40:49 21:42:42 12° 57° (ENE) 21:44:36 437.505/2401.250
ANTELSAT 23 Jan 21:43:44 21:46:08 14° 89° (E) 21:48:33 437.575/2403.000
ZACube-1 23 Jan 21:44:14 21:47:26 21° 268° (W) 21:50:41 437.345
BEESAT 3 23 Jan 22:10:10 22:11:07 11° 24° (NNE) 22:12:06 437.485
CUBEBUG 1 23 Jan 22:11:33 22:13:55 14° 59° (ENE) 22:16:15 437.445
Oscar 11 23 Jan 22:14:40 22:16:53 14° 271° (W) 22:19:09 145.826/435.025
AIST 2 23 Jan 22:15:09 22:16:24 11° 337° (NNW) 22:17:39 435.215
GONETS M04 23 Jan 22:20:55 22:27:50 25° 300° (WNW) 22:34:49
DELFI C3 23 Jan 22:21:23 22:24:48 26° 265° (W) 22:28:15 145.870
Cosmos 2499 23 Jan 22:31:29 22:36:00 16° 304° (NW) 22:40:21 435.465 / 435.565
AISAT 23 Jan 22:37:30 22:40:26 18° 61° (ENE) 22:43:22 437.250
BY70-1 23 Jan 22:41:25 22:44:33 74° 75° (ENE) 22:47:53 436.1900
UNISAT 6 23 Jan 22:50:25 22:54:52 64° 102° (ESE) 22:59:23 437.425
PRISM 23 Jan 22:52:48 22:56:41 41° 291° (WNW) 23:00:31 437.425
ISS 23 Jan 22:52:58 22:56:14 77° 338° (NNW) 22:59:29 145.825
HUMSAT D 23 Jan 22:56:52 23:00:03 21° 268° (W) 23:03:17 437.325/437.525
TIGRISAT 23 Jan 23:02:32 23:07:01 79° 105° (ESE) 23:11:34 435.000
BEESAT 2 23 Jan 23:02:37 23:04:40 13° 29° (NNE) 23:06:43 435.950
50 SAT 23 Jan 23:04:03 23:06:28 17° 64° (ENE) 23:08:54 437.505
VELOX 1 23 Jan 23:09:25 23:13:20 32° 67° (ENE) 23:17:17 145.980
SPROUT 23 Jan 23:09:45 23:13:07 23° 65° (ENE) 23:16:30 437.525
JAS-2 23 Jan 23:10:03 23:17:00 45° 97° (E) 23:24:22 435.910
ESTCUBE 1 23 Jan 23:14:15 23:18:47 87° 76° (ENE) 23:23:22 437.505/2401.250
AO-85 23 Jan 23:14:32 23:17:22 19° 246° (WSW) 23:20:12 145.980
ANTELSAT 23 Jan 23:18:50 23:23:17 69° 287° (WNW) 23:27:48 437.575/2403.000
PCSat 23 Jan 23:19:21 23:22:21 15° 104° (ESE) 23:25:20 145.827
UKube-1 23 Jan 23:21:16 23:24:04 17° 60° (ENE) 23:26:52 .
DX 1 23 Jan 23:28:59 23:32:35 26° 65° (ENE) 23:36:12 434.975-435.025
QB50P1 23 Jan 23:31:15 23:34:10 18° 92° (E) 23:37:06 145.935-145.965
RS-15 23 Jan 23:35:38 23:47:16 64° 116° (ESE) 23:59:21 29.354- 29.394
POLYITAN 1 23 Jan 23:36:28 23:39:40 21° 93° (E) 23:42:53 437.675
QB50P2 23 Jan 23:37:45 23:41:07 22° 93° (E) 23:44:28 145.880/145.840
YUBILEINY 23 Jan 23:43:48 23:50:30 23° 58° (ENE) 23:57:08 435.215
CUBEBUG 1 23 Jan 23:45:13 23:49:38 75° 257° (WSW) 23:54:02 437.445
BEESAT 3 23 Jan 23:45:59 23:49:48 41° 46° (NE) 23:53:36 437.485
POPSAT HIP 1 23 Jan 23:57:55 00:01:44 32° 96° (E) 00:05:34 437.405
DUCHIFAT 1 24 Jan 00:03:45 00:07:34 32° 97° (E) 00:11:21 145.980
NANOSAT C BR1 24 Jan 00:11:16 00:15:17 42° 99° (E) 00:19:18 145.865
AISAT 24 Jan 00:12:04 00:16:28 60° 259° (W) 00:20:52 437.250
AIST 1 24 Jan 00:15:31 00:19:06 25° 71° (ENE) 00:22:40
BUGSAT 1 24 Jan 00:22:54 00:25:51 19° 93° (E) 00:28:47 437.445
TISAT 1 24 Jan 00:23:57 00:27:10 22° 64° (ENE) 00:30:24 437.305
Cosmos 2504 24 Jan 00:27:35 00:32:37 19° 58° (ENE) 00:37:30 435.465 / 435.565
UNISAT 6 24 Jan 00:28:17 00:31:08 17° 299° (WNW) 00:34:02 437.425
ISS 24 Jan 00:29:56 00:33:00 36° 357° (N) 00:36:03 145.825
50 SAT 24 Jan 00:36:03 00:39:24 38° 261° (W) 00:42:47 437.505
BEESAT 2 24 Jan 00:39:16 00:43:17 59° 50° (NE) 00:47:17 435.950
TIGRISAT 24 Jan 00:40:48 00:43:08 14° 301° (WNW) 00:45:30 435.000
Cosmos 2491 24 Jan 00:41:01 00:46:41 20° 75° (ENE) 00:52:21 435.465 / 435.565
SPROUT 24 Jan 00:44:52 00:48:51 38° 263° (W) 00:52:50 437.525
VELOX 1 24 Jan 00:45:53 00:49:47 30° 264° (W) 00:53:42 145.980
ITUPSAT 1 24 Jan 00:50:40 00:52:27 12° 55° (NE) 00:54:14 437.325
ESTCUBE 1 24 Jan 00:54:53 00:56:14 11° 273° (W) 00:57:36 437.505/2401.250
JAS-2 24 Jan 00:55:12 01:01:59 47° 294° (WNW) 01:09:18 435.910
UKube-1 24 Jan 00:55:24 00:59:40 60° 258° (WSW) 01:03:58 .
PCSat 24 Jan 00:59:32 01:04:57 90° 276° (W) 01:10:26 145.827
DX 1 24 Jan 01:04:35 01:08:38 36° 262° (W) 01:12:41 434.975-435.025
QB50P1 24 Jan 01:06:08 01:10:12 48° 289° (WNW) 01:14:16 145.935-145.965
POLYITAN 1 24 Jan 01:11:39 01:15:38 42° 290° (WNW) 01:19:39 437.675
QB50P2 24 Jan 01:13:06 01:17:02 38° 291° (WNW) 01:20:58 145.880/145.840
BEESAT 24 Jan 01:20:26 01:24:02 22° 61° (ENE) 01:27:37 436.000
SWISSCUBE 24 Jan 01:22:13 01:26:02 25° 62° (ENE) 01:29:52 437.505
BEESAT 3 24 Jan 01:23:57 01:27:14 25° 244° (WSW) 01:30:30 437.485
POPSAT HIP 1 24 Jan 01:33:52 01:37:25 27° 294° (WNW) 01:40:59 437.405
Oscar 19 24 Jan 01:34:20 01:38:55 31° 95° (E) 01:43:28 437.125/150
AIST 2 24 Jan 01:35:16 01:37:21 13° 27° (NNE) 01:39:27 435.215
DUCHIFAT 1 24 Jan 01:39:37 01:43:08 27° 294° (WNW) 01:46:40 145.980
